FW5428 Weather Reports


Display with metric or nautical units.
time (UTC)temp
F
wind
direction
speed
MPH
gust
MPH
rain 1hr
in
rain 24hr
in
rain mn
in
humidity
%
barometer
mb
20260905022641 53 0 4.0 9.0 0.00 0.00 0.00 65 1016.5
20260905022135 53 45 5.0 8.0 0.00 0.00 0.00 67 1016.5
20260905021621 52 0 4.0 10.0 0.00 0.00 0.00 64 1016.5
20260905021113 52 0 4.0 10.0 0.00 0.00 0.00 67 1016.6
20260905020601 51 0 4.0 8.0 0.00 0.00 0.00 68 1016.7
20260905020051 52 0 3.0 6.0 0.00 0.00 0.00 71 1016.7
20260905015541 53 0 4.0 6.0 0.00 0.00 0.00 71 1016.5
20260905015031 53 0 4.0 5.0 0.00 0.00 0.00 68 1016.5
20260905014520 54 0 3.0 6.0 0.00 0.00 0.00 67 1016.7
20260905014010 54 0 4.0 6.0 0.00 0.00 0.00 63 1016.5
20260905013500 54 0 4.0 8.0 0.00 0.00 0.00 63 1016.5
20260905012950 53 0 4.0 8.0 0.00 0.00 0.00 64 1016.5
20260905012440 53 0 3.0 6.0 0.00 0.00 0.00 68 1016.4
20260905011929 53 0 3.0 6.0 0.00 0.00 0.00 67 1016.5
20260905011420 53 0 3.0 5.0 0.00 0.00 0.00 68 1016.5
20260905010910 53 0 3.0 4.0 0.00 0.00 0.00 68 1016.3
20260905010359 53 0 3.0 4.0 0.00 0.00 0.00 67 1016.3
20260905005849 54 0 2.0 5.0 0.00 0.00 0.00 65 1016.2
20260905005339 54 45 3.0 5.0 0.00 0.00 0.00 64 1016.1
20260905004829 54 0 3.0 4.0 0.00 0.00 0.00 66 1016.4
20260905004319 54 0 2.0 4.0 0.00 0.00 0.00 66 1016.3
20260905003259 55 0 3.0 4.0 0.00 0.00 0.00 67 1016.2
20260905002751 55 0 2.0 4.0 0.00 0.00 0.00 63 1016.3
20260905002239 56 0 2.0 4.0 0.00 0.00 0.00 63 1016.2
20260905001728 56 0 3.0 4.0 0.00 0.00 0.00 62 1016.2
20260905001219 56 0 3.0 4.0 0.00 0.00 0.00 62 1016.2
20260905000709 56 0 3.0 4.0 0.00 0.00 0.00 62 1016.2
20260905000159 56 0 3.0 4.0 0.00 0.00 0.00 61 1016.3
20260904235648 56 0 3.0 4.0 0.00 0.00 0.00 61 1016.4
20260904235138 56 0 2.0 4.0 0.00 0.00 0.00 62 1016.3
20260904234628 56 0 2.0 4.0 0.00 0.00 0.00 63 1016.2
20260904234117 57 0 2.0 4.0 0.00 0.00 0.00 62 1016.2
20260904233607 57 0 2.0 3.0 0.00 0.00 0.00 60 1016.3
20260904233058 57 0 2.0 3.0 0.00 0.00 0.00 59 1016.2
20260904232548 57 0 2.0 4.0 0.00 0.00 0.00 60 1016.1
20260904232037 57 0 2.0 4.0 0.00 0.00 0.00 60 1016.2
20260904231528 58 0 2.0 4.0 0.00 0.00 0.00 60 1016.0
20260904231017 58 0 2.0 3.0 0.00 0.00 0.00 59 1016.0
20260904230507 58 0 2.0 3.0 0.00 0.00 0.00 59 1016.1
20260904225957 58 270 1.0 2.0 0.00 0.00 0.00 59 1016.4
20260904225459 58 315 1.0 3.0 0.00 0.00 0.00 59 1016.0
20260904224936 58 270 2.0 3.0 0.00 0.00 0.00 59 1016.0
20260904224427 58 315 2.0 3.0 0.00 0.00 0.00 60 1015.8
20260904223917 58 270 2.0 3.0 0.00 0.00 0.00 59 1016.0
20260904223406 58 315 2.0 3.0 0.00 0.00 0.00 60 1015.8
20260904222929 58 315 2.0 3.0 0.00 0.00 0.00 61 1016.1
20260904221836 59 315 2.0 3.0 0.00 0.00 0.00 61 1016.1
20260904221326 59 270 2.0 3.0 0.00 0.00 0.00 60 1016.0
20260904215755 59 270 2.0 4.0 0.00 0.00 0.00 59 1015.8
20260904215245 60 270 3.0 4.0 0.00 0.00 0.00 60 1016.0
20260904214225 60 270 3.0 5.0 0.00 0.00 0.00 61 1015.9
20260904213715 61 270 3.0 7.0 0.00 0.00 0.00 59 1015.8
20260904213205 61 270 3.0 7.0 0.00 0.00 0.00 58 1016.0
20260904212655 62 270 3.0 8.0 0.00 0.00 0.00 59 1016.1
20260904212145 62 270 2.0 12.0 0.00 0.00 0.00 57 1015.8
20260904211635 62 270 4.0 14.0 0.00 0.00 0.00 59 1015.8
20260904211124 62 270 9.0 14.0 0.00 0.00 0.00 56 1015.8
20260904210615 62 225 7.0 13.0 0.00 0.00 0.00 55 1015.8
20260904210105 62 270 8.0 17.0 0.00 0.00 0.00 55 1015.8
20260904205044 62 270 11.0 15.0 0.00 0.00 0.00 54 1016.0
20260904204534 62 225 10.0 13.0 0.00 0.00 0.00 54 1015.7
20260904204128 62 270 8.0 15.0 0.00 0.00 0.00 52 1015.8
20260904203513 63 225 9.0 15.0 0.00 0.00 0.00 56 1015.6
20260904203012 63 225 10.0 15.0 0.00 0.00 0.00 54 1015.9
20260904201433 63 180 11.0 16.0 0.00 0.00 0.00 54 1015.7
20260904200422 62 270 10.0 17.0 0.00 0.00 0.00 50 1015.6
20260904195904 62 225 12.0 18.0 0.00 0.00 0.00 51 1015.5
20260904194843 63 225 16.0 19.0 0.00 0.00 0.00 53 1015.5
20260904194333 63 225 11.0 17.0 0.00 0.00 0.00 52 1015.6
20260904193822 63 180 13.0 15.0 0.00 0.00 0.00 52 1015.3
20260904192802 62 270 11.0 20.0 0.00 0.00 0.00 51 1015.3
20260904192252 62 225 11.0 20.0 0.00 0.00 0.00 54 1015.3
20260904191742 62 225 9.0 19.0 0.00 0.00 0.00 54 1015.5
20260904190721 62 225 10.0 16.0 0.00 0.00 0.00 55 1015.4
20260904190212 62 270 12.0 16.0 0.00 0.00 0.00 56 1015.5
20260904185702 62 225 9.0 17.0 0.00 0.00 0.00 55 1015.5
20260904185151 62 225 8.0 17.0 0.00 0.00 0.00 58 1015.7
20260904184642 62 225 14.0 18.0 0.00 0.00 0.00 56 1015.8
20260904183621 62 225 14.0 23.0 0.00 0.00 0.00 58 1015.5
20260904183111 62 180 12.0 17.0 0.00 0.00 0.00 56 1015.7
20260904182601 62 180 8.0 13.0 0.00 0.00 0.00 58 1015.5
20260904182050 62 180 6.0 15.0 0.00 0.00 0.00 56 1015.5
20260904181541 62 225 6.0 15.0 0.00 0.00 0.00 58 1015.5
20260904181030 62 225 8.0 17.0 0.00 0.00 0.00 57 1015.7
20260904180520 62 225 11.0 17.0 0.00 0.00 0.00 59 1015.7
20260904180012 62 225 11.0 17.0 0.00 0.00 0.00 56 1015.7
20260904175500 62 180 9.0 17.0 0.00 0.00 0.00 58 1015.5
20260904174950 62 180 11.0 17.0 0.00 0.00 0.00 60 1015.5
20260904173929 61 135 9.0 16.0 0.00 0.00 0.00 59 1015.7
20260904173419 61 180 4.0 9.0 0.00 0.00 0.00 64 1015.9
20260904172910 60 180 2.0 9.0 0.00 0.00 0.00 63 1015.9
20260904172400 60 180 5.0 9.0 0.00 0.00 0.00 63 1016.0
20260904171849 60 180 4.0 9.0 0.00 0.00 0.00 62 1016.0
20260904171343 60 180 4.0 8.0 0.00 0.00 0.00 64 1016.4
20260904170829 60 180 6.0 8.0 0.00 0.00 0.00 63 1016.4
20260904170318 60 180 3.0 9.0 0.00 0.00 0.00 64 1016.4
20260904165809 60 135 5.0 9.0 0.00 0.00 0.00 66 1016.5
20260904165259 60 90 4.0 11.0 0.00 0.00 0.00 66 1016.8
20260904164748 61 135 7.0 11.0 0.00 0.00 0.00 66 1016.8
20260904164239 60 90 5.0 8.0 0.00 0.00 0.00 66 1016.6
20260904163728 60 180 2.0 10.0 0.00 0.00 0.00 64 1016.8
20260904163218 59 180 4.0 10.0 0.00 0.00 0.00 65 1016.9
20260904161648 59 90 3.0 7.0 0.00 0.00 0.00 72 1017.1
20260904161138 59 90 3.0 8.0 0.00 0.00 0.00 71 1017.4
20260904160628 59 90 5.0 8.0 0.00 0.00 0.00 73 1017.4
20260904160118 59 180 4.0 7.0 0.00 0.00 0.00 72 1017.4
20260904155608 59 135 3.0 7.0 0.00 0.00 0.00 72 1017.4
20260904155057 59 180 5.0 7.0 0.00 0.00 0.00 72 1017.5
20260904154547 59 90 4.0 7.0 0.00 0.00 0.00 72 1017.6
20260904154037 59 180 3.0 8.0 0.00 0.00 0.00 72 1017.8
20260904153527 58 135 4.0 8.0 0.00 0.00 0.00 70 1017.9
20260904153018 58 180 4.0 8.0 0.00 0.00 0.00 70 1017.8
20260904152506 58 135 5.0 8.0 0.00 0.00 0.00 73 1017.6
20260904151957 58 180 4.0 8.0 0.00 0.00 0.00 73 1018.2
20260904151446 58 90 4.0 8.0 0.00 0.00 0.00 72 1018.0
20260904150937 58 180 4.0 5.0 0.00 0.00 0.00 71 1018.1
20260904150428 58 180 2.0 4.0 0.00 0.00 0.00 73 1018.2
20260904145916 57 135 2.0 4.0 0.00 0.00 0.00 73 1018.1
20260904145406 56 180 2.0 5.0 0.00 0.00 0.00 75 1018.3
20260904144856 56 180 3.0 5.0 0.00 0.00 0.00 76 1018.4
20260904144346 56 180 3.0 5.0 0.00 0.00 0.00 81 1018.5
20260904143326 55 180 4.0 5.0 0.00 0.00 0.00 83 1018.5
20260904142815 55 180 3.0 6.0 0.00 0.00 0.00 83 1018.4
20260904142306 55 180 4.0 6.0 0.00 0.00 0.00 84 1018.6
20260904141756 55 180 4.0 6.0 0.00 0.00 0.00 83 1018.3
20260904141245 55 180 5.0 7.0 0.00 0.00 0.00 83 1018.2
20260904140735 55 180 4.0 7.0 0.00 0.00 0.00 84 1018.2
20260904140225 55 180 5.0 7.0 0.00 0.00 0.00 84 1018.3
20260904135205 54 135 3.0 5.0 0.00 0.00 0.00 85 1018.3
20260904112212 47 270 2.0 0.0 0.00 0.00 0.00 86 1017.6
20260904111840 46 270 2.0 4.0 0.00 0.00 0.00 86 1017.8
20260904111330 46 270 2.0 4.0 0.00 0.00 0.00 86 1017.7
20260904110820 45 0 2.0 4.0 0.00 0.00 0.00 87 1017.3
20260904110310 44 270 2.0 5.0 0.00 0.00 0.00 88 1017.6
20260904104740 43 270 4.0 9.0 0.00 0.00 0.00 89 1017.4
20260904104229 42 0 4.0 9.0 0.00 0.00 0.00 90 1017.5
20260904103209 42 0 3.0 8.0 0.00 0.00 0.00 90 1017.2
20260904102148 43 0 3.0 6.0 0.00 0.00 0.00 90 1017.2
20260904101129 44 0 3.0 6.0 0.00 0.00 0.00 90 1017.0
20260904100618 45 0 3.0 4.0 0.00 0.00 0.00 90 1017.0
20260904100108 46 0 2.0 4.0 0.00 0.00 0.00 90 1016.8
20260904095558 47 0 2.0 5.0 0.00 0.00 0.00 90 1016.8
20260904095048 48 0 2.0 5.0 0.00 0.00 0.00 90 1016.7
20260904094536 49 270 3.0 6.0 0.00 0.00 0.00 89 1016.6
20260904094027 49 0 4.0 8.0 0.00 0.00 0.00 89 1016.5
20260904093517 50 270 2.0 9.0 0.00 0.00 0.00 89 1016.5
20260904093012 50 225 4.0 9.0 0.00 0.00 0.00 89 1016.4
20260904091947 50 270 6.0 9.0 0.00 0.00 0.00 88 1016.3
20260904091437 50 225 6.0 13.0 0.00 0.00 0.00 88 1016.2
20260904090927 50 180 9.0 14.0 0.00 0.00 0.00 87 1016.2
20260904085907 50 180 8.0 13.0 0.00 0.00 0.00 86 1016.0
20260904085357 50 180 9.0 13.0 0.00 0.00 0.00 86 1016.2
20260904084847 49 180 8.0 13.0 0.00 0.00 0.00 86 1016.1
20260904084337 49 225 8.0 14.0 0.00 0.00 0.00 87 1016.1
20260904083827 49 225 8.0 15.0 0.00 0.00 0.00 86 1015.9
20260904083316 49 225 11.0 15.0 0.00 0.00 0.00 85 1016.0
20260904082807 49 225 10.0 15.0 0.00 0.00 0.00 85 1016.1
20260904082256 49 225 11.0 14.0 0.00 0.00 0.00 85 1015.9
20260904081236 48 270 8.0 11.0 0.00 0.00 0.00 85 1016.1
20260904080215 48 270 5.0 11.0 0.00 0.00 0.00 85 1015.8
20260904075705 49 225 8.0 11.0 0.00 0.00 0.00 85 1016.0
20260904075155 48 270 9.0 13.0 0.00 0.00 0.00 85 1016.0
20260904074645 48 225 11.0 13.0 0.00 0.00 0.00 83 1016.0
20260904074136 47 225 8.0 11.0 0.00 0.00 0.00 84 1016.1
20260904073115 47 270 4.0 6.0 0.00 0.00 0.00 85 1016.0
20260904072605 46 270 4.0 5.0 0.00 0.00 0.00 85 1016.1
20260904072055 46 270 2.0 7.0 0.00 0.00 0.00 84 1016.2
20260904071545 46 270 2.0 7.0 0.00 0.00 0.00 84 1015.8
20260904071034 46 270 3.0 7.0 0.00 0.00 0.00 84 1015.9
20260904070014 46 270 4.0 7.0 0.00 0.00 0.00 84 1016.1
20260904065504 46 315 3.0 6.0 0.00 0.00 0.00 83 1016.0
20260904064954 47 270 4.0 6.0 0.00 0.00 0.00 84 1016.0
20260904064444 47 270 2.0 5.0 0.00 0.00 0.00 83 1016.1
20260904063424 47 270 3.0 7.0 0.00 0.00 0.00 81 1016.2
20260904062913 48 270 4.0 7.0 0.00 0.00 0.00 81 1016.1
20260904062403 48 270 4.0 8.0 0.00 0.00 0.00 82 1016.3
20260904061853 49 270 4.0 10.0 0.00 0.00 0.00 81 1016.2
20260904060834 49 270 4.0 11.0 0.00 0.00 0.00 80 1016.1
20260904060323 48 270 6.0 0.0 0.00 0.00 0.00 80 1016.1
20260904055412 48 270 5.0 11.0 0.00 0.00 0.00 80 1016.2
20260904054902 49 270 6.0 8.0 0.00 0.00 0.00 81 1015.9
20260904053841 49 315 4.0 9.0 0.00 0.00 0.00 79 1016.0
20260904052821 49 270 6.0 11.0 0.00 0.00 0.00 78 1015.6
20260904052311 49 270 4.0 11.0 0.00 0.00 0.00 79 1015.9
20260904051801 49 270 5.0 11.0 0.00 0.00 0.00 79 1015.9
20260904051304 49 270 8.0 11.0 0.00 0.00 0.00 79 1016.0
20260904050741 49 315 7.0 11.0 0.00 0.00 0.00 79 1016.0
20260904044701 49 315 5.0 9.0 0.00 0.00 0.00 79 1016.0
20260904044151 49 270 4.0 10.0 0.00 0.00 0.00 79 1015.8
20260904043640 49 0 5.0 10.0 0.00 0.00 0.00 79 1016.0
20260904043130 49 270 5.0 9.0 0.00 0.00 0.00 79 1016.0
20260904041600 49 0 4.0 10.0 0.00 0.00 0.00 79 1015.7
20260904041050 49 270 3.0 11.0 0.00 0.00 0.00 79 1015.8
20260904040029 49 270 4.0 10.0 0.00 0.00 0.00 79 1015.8
20260904035519 50 0 5.0 11.0 0.00 0.00 0.00 79 1015.7
20260904035010 50 225 4.0 11.0 0.00 0.00 0.00 79 1015.7
20260904033949 51 315 4.0 12.0 0.00 0.00 0.00 78 1015.5
20260904033439 50 270 4.0 10.0 0.00 0.00 0.00 77 1015.7
20260904032929 50 270 6.0 11.0 0.00 0.00 0.00 75 1015.4
20260904032418 49 270 6.0 11.0 0.00 0.00 0.00 78 1015.7
20260904031909 49 0 7.0 11.0 0.00 0.00 0.00 80 1015.7
20260904031359 50 315 4.0 10.0 0.00 0.00 0.00 80 1015.6
20260904030338 51 315 3.0 8.0 0.00 0.00 0.00 76 1015.6
20260904025828 51 270 4.0 8.0 0.00 0.00 0.00 75 1015.6
20260904025319 51 270 4.0 8.0 0.00 0.00 0.00 75 1015.5
20260904024808 51 270 3.0 8.0 0.00 0.00 0.00 76 1015.7
20260904024258 52 270 4.0 8.0 0.00 0.00 0.00 75 1015.3
20260904023748 52 270 5.0 8.0 0.00 0.00 0.00 74 1015.3
20260904023238 52 270 2.0 8.0 0.00 0.00 0.00 75 1015.2